sat.trackr.live / text

‹ back to catalog

STARLINK-33572

NORAD 62767 · 2025-015K

PAYLOAD ACTIVE UNKNOWN

§ Identity

Operator
Country
US
Launch date
2025-01-21
Launch site
AFWTR
Launch vehicle
Mass (kg)
RCS (m²)

Purposes: comms

External: N2YO · Heavens-Above · Gunter

§ Orbital elements

Epoch: 2026-09-21T20:01:01.950240Z

Period
93.85 min
Inclination
53.1576°
Eccentricity
0.0001146
Mean motion
15.34400532 rev/d
Perigee alt
461.9 km
Apogee alt
463.5 km
Semi-major
6,840.8 km
B*
5.4755e-4
RAAN
127.7033°
Arg perigee
112.3422°
Mean anomaly
247.7702°
Rev number
9,450

§ Raw data

STARLINK-335721 62767U 25015K   26264.83405035  .00018169  00000+0  54755-3 0  99922 62767  53.1576 127.7033 0001146 112.3422 247.7702 15.34400532 94501

JSON: /api/v1/satellites/62767 · /tle

For live sub-satellite position, see the globe view (requires WebGL).

§ Visibility from observer

Set your observer location to see the next 7 days of passes ≥ 10°. The values pass through the URL so the page stays shareable.

No JS? Fill the form by hand. The geolocation button needs JavaScript.